Location: Cormeilles
(49.1159°N, 2.0194°E)
Time: 11:15:34
(UTC+00:00)

Daily predictions for brighter satellites

Satellite Brightness Start Highest point End
(mag) Time Altitude Azimuth Time Altitude Azimuth Time Altitude Azimuth
SAR-Lupe-2 3.5 18:41:18 10° SSE 18:44:51 76° ENE 18:48:27 10° N
Cosmos 1315 Rocket 4.5 18:43:49 10° NNE 18:46:27 17° ENE 18:49:05 10° ESE
Meteor PRIRODA 3.4 18:46:23 10° SSE 18:49:38 59° ENE 18:52:53 10° N
ATLAS 2AS CENTAUR R/B 4.3 18:43:16 10° W 18:49:44 34° NNW 18:56:02 10° NE
Cosmos 1125 Rocket 4.2 18:45:31 10° N 18:50:19 36° ENE 18:55:06 10° ESE
Cosmos 1842 3.4 18:48:25 10° N 18:51:54 43° ENE 18:55:22 10° SSE
USA 59 Rocket 0.1 18:49:36 10° NW 18:53:23 82° SW 18:58:36 10° SE
Cosmos 1536 3.7 18:51:06 10° SE 18:54:14 25° E 18:57:25 10° NNE
Okean 3 Rocket 4.4 18:50:47 10° SSE 18:54:41 31° E 18:58:36 10° NNE
Cosmos 2061 Rocket 4.3 18:49:01 10° SSW 18:55:27 79° W 19:01:56 10° N
COSMOS 2428 2.7 18:50:01 10° SSW 18:55:39 67° ESE 19:01:21 10° NNE
Cosmos 1707 3.0 18:52:21 10° N 18:55:43 39° ENE 18:59:03 10° SE
Cosmos 1515 Rocket 4.2 18:51:55 10° N 18:55:55 34° ENE 18:59:54 10° SE
Cosmos 1818 3.9 18:55:20 10° SW 19:00:48 74° NW 19:06:19 10° NE
Okean O Rocket 2.7 18:57:42 10° ESE 19:01:22 27° ENE 19:05:06 10° N
Cosmos 2278 Rocket 2.2 19:00:42 10° NNW 19:06:24 73° ENE 19:12:03 10° SE
USA 306 2.2 19:04:29 10° WSW 19:07:34 83° NNW 19:11:12 10° ENE
CZ-4B DEB 4.2 19:03:38 10° SSE 19:09:09 88° ENE 19:14:42 10° NNW
CZ-4 R/B 1.2 19:06:21 10° SSE 19:10:09 76° ENE 19:14:04 10° N
CZ-4B R/B 3.3 19:08:20 10° SSE 19:13:40 58° ENE 19:18:56 10° N
NOSS 2-1 (C) 4.1 19:10:01 10° NW 19:13:44 55° SW 19:18:48 10° SSE
Cosmos 1766 Rocket 3.5 19:09:54 10° S 19:14:15 86° E 19:18:41 10° N
Resurs 01 Rocket 1.7 19:11:21 10° SSE 19:15:43 61° ENE 19:20:06 10° N
Meteor 2-17 Rocket 4.4 19:09:49 10° N 19:15:53 74° ENE 19:21:57 10° SSE
Helios 1A 2.8 19:12:32 10° NNE 19:16:37 77° ESE 19:20:40 10° S
USA 290 2.4 19:13:33 10° NNW 19:16:51 77° WSW 19:20:09 10° SSE
ADEOS 4.0 19:13:12 10° S 19:18:22 65° WSW 19:23:34 10° NNW
GEOS 3 Rocket 3.7 19:13:45 10° SE 19:18:59 82° SW 19:24:11 10° NW
USA 186 1.7 19:17:49 10° SSE 19:20:59 69° ENE 19:24:13 10° N
CZ-4B R/B 4.0 19:16:34 10° S 19:21:13 58° WSW 19:26:00 10° NNW
Cosmos 1814 Rocket 4.0 19:16:42 10° SSW 19:22:00 88° WNW 19:27:17 10° NNE
PAYLOAD B 4.3 19:16:40 10° SSE 19:22:17 87° ENE 19:27:56 10° NNW
Cosmos 2360 Rocket 4.4 19:17:35 10° WSW 19:22:20 27° NW 19:27:07 10° NNE
KORONAS-FOTON 3.9 19:19:06 10° NNW 19:22:48 75° W 19:26:29 10° S
Cosmos 1743 4.4 19:19:34 10° SW 19:22:52 35° WNW 19:26:11 10° N
MOS 1-B 4.5 19:17:55 10° SE 19:23:34 57° ENE 19:29:14 10° N
SPOT 5 3.8 19:22:14 18° ESE 19:24:23 26° ENE 19:28:04 10° N
Okean-O 3.7 19:23:04 19° ESE 19:25:09 27° ENE 19:28:53 10° N
USA 267 4.1 19:21:39 10° ENE 19:27:46 45° N 19:33:55 10° WNW
Cosmos 1408 Rocket 4.0 19:24:20 10° SSE 19:28:23 39° E 19:32:30 10° NNE
ISS -3.3 19:26:09 10° SW 19:29:21 42° SSE 19:30:43 27° E
SPOT 1/Viking Rocket 4.3 19:24:29 10° S 19:29:33 55° W 19:34:38 10° NNW
NOSS 3-3 (A) 4.3 19:25:08 10° S 19:29:52 33° ESE 19:35:15 10° NE
CZ-4B R/B 3.2 19:26:24 10° S 19:30:15 67° WSW 19:34:19 10° NNW
Kosmos-1783 4.3 19:30:10 10° WSW 19:32:01 25° NW 19:33:12 13° NNE
SL-08 R/B 4.0 19:28:17 10° N 19:33:10 62° WNW 19:38:01 10° SSW
Cosmos 2237 Rocket 2.2 19:29:13 10° S 19:34:41 56° ESE 19:40:11 10° NE
Aureole 3 Rocket 4.2 19:31:10 10° SSE 19:37:25 41° E 19:42:03 10° NNE
CSL-04 Rocket 3.6 19:32:06 10° SSE 19:37:27 80° ENE 19:42:46 10° NNW
Cosmos 2219 Rocket 4.0 19:34:27 10° WSW 19:39:35 34° NW 19:44:44 10° NNE
Cosmos 1356 Rocket 3.9 19:38:39 10° NNW 19:42:48 62° W 19:46:55 10° S
Meteor 1-14 Rocket 4.4 19:37:55 10° SSW 19:43:26 73° WNW 19:49:01 10° N
Lacrosse 4 Rocket 4.2 19:41:48 10° WNW 19:44:29 16° WSW 19:47:07 10° SW
Meteor 1-4 Rocket 4.2 19:43:34 10° NW 19:45:46 23° W 19:47:58 10° SSW
Meteor 1-11 Rocket 3.6 19:40:53 10° S 19:46:26 66° E 19:51:56 10° NNE
MOS 1 Rocket 4.2 19:45:38 26° ESE 19:47:38 36° ENE 19:52:27 10° N
CARTOSAT-1 4.0 19:46:34 10° S 19:50:46 61° W 19:54:59 10° NNW
ATLAS CENTAUR R/B 1.0 19:48:09 10° SSW 19:51:37 55° SE 19:54:53 13° NE
Cosmos 158 Rocket 3.8 19:46:51 10° S 19:51:38 59° ESE 19:56:25 10° NNE
NOSS 3-4 (A) 4.3 19:46:42 10° NW 19:52:57 45° NE 19:57:11 23° E
NOSS 3-4 (C) 4.3 19:46:49 10° NW 19:53:04 45° NE 19:57:18 23° E
Cosmos 1805 Rocket 3.7 19:52:47 30° SSE 19:54:29 46° E 19:58:39 10° NNE
Cosmos 1428 Rocket 4.4 19:51:53 10° N 19:58:00 71° ENE 20:02:18 20° SSE
Cosmos 1733 3.2 19:55:23 10° SSW 19:58:47 67° W 20:02:13 10° N
In-Cosmos 22 4.4 19:55:00 10° NNW 20:00:42 73° W 20:06:00 11° S
USA 276 3.2 19:58:18 10° W 20:00:38 28° SW 20:00:38 28° SW
Cosmos 2369 Rocket 3.1 19:58:08 10° NNW 20:03:18 33° NE 20:05:12 27° E
Cosmos 1980 3.7 19:58:31 10° SSW 20:04:12 86° WNW 20:09:57 10° NNE
Meteor 1-21 4.4 20:02:36 10° N 20:08:16 55° ENE 20:10:23 36° SE
Sich 1 2.8 20:07:33 29° S 20:09:39 72° E 20:13:57 10° NNE
Cosmos 1943 Rocket 2.6 20:05:03 10° NW 20:10:26 57° WSW 20:14:05 21° S
BlueWalker 3 4.5 20:08:53 10° WSW 20:10:30 12° SW 20:12:07 10° SSW
Cosmos 1707 Rocket 4.4 20:07:05 10° N 20:11:05 34° ENE 20:11:05 34° ENE
DELTA 2 DEB (DPAF) 4.2 20:08:02 10° NNE 20:11:47 46° E 20:11:47 46° E
NOSS 0 Rocket 4.4 20:06:39 10° SW 20:12:50 64° NW 20:19:04 10° NNE
Cosmos 2298 Rocket 3.9 20:09:00 10° NNW 20:14:20 86° ENE 20:16:27 38° SSE
Terra 2.3 20:13:52 38° E 20:14:20 39° ENE 20:18:43 10° N
ACS3 Solar Sail 2.0 20:09:36 15° S 20:14:59 80° W 20:21:26 10° NNW
ERS-1 Rocket 3.3 20:14:04 41° ESE 20:15:05 48° ENE 20:19:55 10° N
Nadezhda 4 Rocket 4.3 20:09:07 10° NNW 20:15:20 66° W 20:21:33 10° S
Cosmos 2195 Rocket 4.4 20:09:21 10° N 20:15:31 84° E 20:19:12 26° SSE
Cosmos 2150 Rocket 3.9 20:10:50 10° NNW 20:16:02 88° ENE 20:17:56 40° SSE
USA 32 3.9 20:11:27 10° N 20:16:44 86° E 20:19:24 30° S
Cosmos 1570 Rocket 4.1 20:11:37 10° SSW 20:16:54 78° WNW 20:22:11 10° NNE
Cosmos 1975 3.5 20:18:58 37° NE 20:18:58 37° NE 20:21:42 10° NNE
Cosmos 1805 3.0 20:21:37 73° SSW 20:21:56 85° WNW 20:25:37 10° N
Cosmos 1315 Rocket 3.5 20:18:58 10° NNW 20:22:49 50° W 20:24:27 30° SSW
Cosmos 2026 Rocket 3.9 20:16:36 10° N 20:22:52 81° E 20:25:51 33° SSE
Cosmos 1092 Rocket 3.9 20:16:59 10° N 20:23:22 80° E 20:26:29 33° SSE
Ariane Rocket 3.7 20:24:21 36° ENE 20:24:41 36° ENE 20:29:19 10° N
Meteor 2-12 Rocket 4.4 20:20:29 10° N 20:26:40 72° ENE 20:28:55 41° SSE
Cosmos 836 Rocket 4.4 20:22:07 10° SSW 20:27:24 88° ESE 20:32:44 10° NNE
IRS-1A Rocket 4.3 20:26:27 44° SE 20:28:18 70° ENE 20:33:59 10° NNW
Okean 3 4.2 20:29:36 10° N 20:32:45 38° NE 20:32:45 38° NE
SL-16 R/B 2.3 20:35:16 52° ESE 20:35:16 52° ESE 20:40:35 10° NE
Okean O Rocket 2.8 20:35:02 21° SSW 20:37:28 38° W 20:41:38 10° NNW
Cosmos 1634 Rocket 3.9 20:36:32 36° S 20:39:16 74° E 20:45:35 10° NNE
Cosmos 1656 Rocket 3.6 20:34:42 10° NNW 20:40:23 73° ENE 20:41:19 60° ESE
USA 306 3.6 20:37:14 10° WNW 20:40:29 38° N 20:40:35 38° N
SL-14 R/B 3.7 20:36:45 10° NNW 20:40:29 55° W 20:40:36 55° WSW
USA 59 Rocket 2.9 20:40:43 10° W 20:42:43 13° WSW 20:44:57 10° SW
IRS-1C Rocket 4.0 20:45:02 64° SSE 20:45:54 86° ENE 20:51:13 10° NNW
Cosmos 773 Rocket 3.9 20:45:39 43° SSW 20:47:26 85° ESE 20:52:45 10° NNE
Cosmos 2278 Rocket 4.3 20:45:47 10° NW 20:49:52 21° W 20:53:57 10° SSW
Okean 1-7 4.3 20:46:00 10° N 20:48:39 29° NNE 20:48:39 29° NNE
Cosmos 2263 4.5 20:45:54 10° NNW 20:51:31 52° NE 20:51:55 51° ENE
Resurs 01 Rocket 4.2 20:49:39 10° SW 20:52:32 17° W 20:55:25 10° NW
Cosmos 2228 Rocket 3.2 20:51:01 10° N 20:55:20 78° NNW 20:55:20 78° NNW
Cosmos 1743 Rocket 4.5 20:56:20 33° SW 20:57:45 46° WNW 21:01:58 10° N
SPOT 3 Rocket 3.5 21:00:55 67° NE 21:00:55 67° NE 21:05:48 10° N
Okean-O 3.8 21:00:31 34° WSW 21:01:23 37° W 21:05:29 10° NNW
SPOT 5 3.7 21:01:23 37° SW 21:02:15 41° W 21:06:29 10° NNW
Cosmos 2142 Rocket 4.4 21:02:36 63° E 21:02:36 63° E 21:08:37 10° NNE
NOSS 3-3 (C) 4.0 21:00:33 10° SW 21:06:02 70° NW 21:12:35 10° NE
ISS -1.1 21:02:46 10° W 21:03:42 17° W 21:03:42 17° W
USA 267 3.5 21:08:22 45° ENE 21:10:14 61° NNE 21:16:40 10° WNW
Cosmos 724 4.4 21:15:31 61° NE 21:15:31 61° NE 21:20:16 10° NE
Cosmos 2180 Rocket 4.4 21:17:01 70° E 21:17:01 70° E 21:23:15 10° NNE
Cosmos 2237 Rocket 3.9 21:14:05 10° WSW 21:19:03 31° NW 21:24:02 10° NNE
NOSS 3-3 (A) 4.4 21:14:52 10° WSW 21:20:19 57° NW 21:26:50 10° NE
Cosmos 2279 Rocket 3.9 21:19:59 69° SSW 21:20:49 84° W 21:27:05 10° N
Cosmos 1607 4.0 21:17:54 10° SW 21:24:22 81° NW 21:30:51 10° NE
Cosmos 2297 4.0 21:23:36 10° NW 21:28:59 58° WSW 21:28:59 58° WSW
ATLAS CENTAUR R/B 3.5 21:26:21 10° W 21:29:19 23° NW 21:29:51 22° NNW
Spot 2 Rocket 4.0 21:31:06 54° W 21:31:06 54° W 21:35:39 10° NNW
NOSS 3-4 (A) 3.9 21:37:27 10° NW 21:44:13 63° SW 21:44:37 62° SW
NOSS 3-4 (C) 3.9 21:37:33 10° NW 21:44:20 63° SW 21:44:43 63° SW
Cosmos 2369 Rocket 2.8 21:42:01 10° NW 21:46:58 50° W 21:46:58 50° W
Terra 3.5 21:52:34 28° W 21:52:34 28° W 21:56:06 10° NW
ACS3 Solar Sail 4.3 21:56:25 10° WSW 22:00:02 15° W 22:03:39 10° NW
Ariane Rocket 4.4 22:04:30 33° WNW 22:04:30 33° WNW 22:08:15 10° NNW
Cosmos 2266 Rocket 4.4 22:04:01 10° NNW 22:09:40 57° WNW 22:09:40 57° WNW
SL-16 R/B 3.7 22:17:00 24° W 22:19:27 33° NW 22:24:34 10° NNE
ATLAS 2AS CENTAUR R/B 3.7 22:29:18 10° NW 22:35:40 37° NNE 22:36:31 35° NE
USA 267 4.2 22:55:43 39° WNW 22:55:43 39° WNW 22:59:45 10° WNW
Cosmos 1697 Rocket 4.3 22:48:45 10° NNW 22:52:28 28° NNE 22:52:28 28° NNE
Cosmos 2344 3.9 23:19:25 10° NW 23:27:14 83° WNW 23:27:14 83° WNW
Cosmos 1980 Rocket 3.8 23:48:57 10° NNW 23:52:13 30° N 23:52:13 30° N
